Home > Weather > Oruro > Past weeks

Flag for Bolivia Weather for the Past 2 Weeks in Oruro, Bolivia

Now
64 °F

Clear.


Feels Like: 64 °F
Forecast: 27 / 64 °F
Wind: No wind

Location: Cochabamba Airport

Current Time: May 4, 2016 at 10:17:42 AM

Latest Report: May 4, 2016 at 10:00 AM


Visibility: N/A

Pressure: 30.33 "Hg (19.60 "Hg at 3722m altitude)

Humidity: 32%

Dew Point: 34 °F

Location of OruroLocation

Historic Weather in Oruro — Graph

°F

Oruro Temperature Yesterday

Maximum temperature yesterday: 81 °F (at 4:00 PM)
Minimum temperature yesterday: 46 °F (at 6:00 AM)
Average temperature yesterday: 64 °F

High & Low Weather Summary for the Past Weeks

 TemperatureHumidityPressure
High88 °F (Apr 29, 4:00 PM)77% (Apr 21, 6:00 AM)30.39 "Hg (Apr 21, 6:00 AM)
Low45 °F (Apr 24, 7:00 AM)6% (Apr 25, 3:00 PM)30.01 "Hg (Apr 25, 4:00 PM)
Average66 °F37%30.21 "Hg
* Reported Apr 19 9:00 AM — May 4 9:00 AM, Oruro, Weather by CustomWeather, © 2016

Note: Actual official high and low records may vary slightly from our data, if they occured in-between our weather recording intervals... More about our weather records

Advertising

Oruro Weather History for the Previous 24 Hours

Scroll right to see more
 ConditionsComfort  
Time TempWeatherWind HumidityBarometerVisibility
9:00 AM
Wed, May 4
59 °FClear.No wind42%30.36 "HgN/A
8:00 AM54 °FClear.No wind51%30.33 "Hg6 mi
7:00 AM45 °FClear.No wind66%30.33 "HgN/A
6:00 AM46 °FClear.No wind62%30.30 "HgN/A
5:00 AM46 °FClear.2 mph62%30.27 "HgN/A
4:00 AM48 °FClear.No wind62%30.27 "HgN/A
3:00 AM50 °FClear.No wind54%30.27 "HgN/A
2:00 AM52 °FClear.No wind50%30.30 "HgN/A
1:00 AM52 °FClear.No wind54%30.30 "HgN/A
12:00 AM61 °FClear.7 mph42%30.30 "HgN/A
11:00 PM
Tue, May 3
63 °FClear.7 mph37%30.30 "HgN/A
10:00 PM64 °FClear.3 mph26%30.27 "HgN/A
9:00 PM68 °FClear.5 mph21%30.27 "HgN/A
8:00 PM70 °FClear.12 mph18%30.24 "HgN/A
7:00 PM66 °FClear.7 mph28%30.18 "HgN/A
6:00 PM72 °FClear.10 mph20%30.18 "HgN/A
5:00 PM81 °FPassing clouds.No wind9%30.15 "HgN/A
4:00 PM81 °FPassing clouds.3 mph8%30.18 "HgN/A
3:00 PM79 °FPassing clouds.3 mph9%30.18 "HgN/A
2:00 PM79 °FClear.No wind11%30.24 "HgN/A
1:00 PM77 °FClear.3 mph11%30.27 "HgN/A
12:00 PM75 °FClear.3 mph14%30.33 "HgN/A
11:00 AM70 °FClear.3 mph21%30.36 "HgN/A
10:00 AM64 °FClear.5 mph28%30.39 "HgN/A
Weather by CustomWeather, © 2016

See weather overviewHow to use our weather pages